Terug naar catalogus

BREEZE-M DEB

TANK

ActiefHEO
NORAD 44627·DEBRIS·🇷🇺 Russia

Gelanceerd Oct 9, 2019 vanaf Baikonur Cosmodrome

Loading…

Volgende Passages (komende 24 uur)

TLE

VersSource: Space-Track

Epoch: Sep 9, 2026, 00:13 UTC

1 44627U 19067D   26252.00906038  .00001766  00000-0  34644-3 0  9993
2 44627  50.3027 171.6838 5798011 264.5902  30.6604  4.34283440107532

Volg BREEZE-M DEB in realtime met AllMySat

Download on the App Store